| time (UTC) | temp F | wind direction | speed knots | gust knots | rain 1hr in | rain 24hr in | rain mn in | humidity % | barometer mb |
| 20260504173219 | 65 | 239 | 0.0 | 1.7 | 0.00 | 0.00 | 0.00 | 73 | 1016.9 |
| 20260504172715 | 65 | 237 | 4.3 | 8.7 | 0.00 | 0.00 | 0.00 | 70 | 1016.9 |
| 20260504172211 | 66 | 258 | 4.3 | 6.1 | 0.00 | 0.00 | 0.00 | 70 | 1016.9 |
| 20260504171708 | 66 | 224 | 0.0 | 0.0 | 0.00 | 0.00 | 0.00 | 70 | 1016.9 |
| 20260504171205 | 65 | 216 | 0.0 | 0.0 | 0.00 | 0.00 | 0.00 | 70 | 1016.6 |
| 20260504170702 | 65 | 241 | 0.0 | 0.0 | 0.00 | 0.00 | 0.00 | 70 | 1016.6 |
| 20260504170200 | 65 | 214 | 1.7 | 6.1 | 0.00 | 0.00 | 0.00 | 69 | 1016.6 |
| 20260504160118 | 62 | 203 | 2.6 | 4.3 | 0.00 | 0.00 | 0.00 | 77 | 1016.2 |
| 20260504151045 | 60 | 204 | 0.0 | 0.0 | 0.00 | 0.00 | 0.00 | 78 | 1016.2 |
| 20260504150542 | 60 | 211 | 0.0 | 0.0 | 0.00 | 0.00 | 0.00 | 78 | 1016.2 |
| 20260504141008 | 58 | 269 | 3.5 | 4.3 | 0.00 | 0.00 | 0.00 | 85 | 1015.9 |
| 20260504140505 | 59 | 257 | 7.0 | 7.8 | 0.00 | 0.00 | 0.00 | 85 | 1015.6 |
| 20260504130429 | 58 | 259 | 0.0 | 0.0 | 0.00 | 0.00 | 0.00 | 83 | 1015.6 |
| 20260504110317 | 59 | 276 | 0.0 | 0.0 | 0.00 | 0.00 | 0.00 | 82 | 1015.6 |
| 20260504100234 | 59 | 239 | 0.0 | 0.0 | 0.00 | 0.00 | 0.00 | 83 | 1015.6 |
| 20260504081628 | 59 | 295 | 0.0 | 0.0 | 0.00 | 0.00 | 0.00 | 86 | 1016.2 |
| 20260504081123 | 59 | 288 | 0.0 | 0.0 | 0.00 | 0.00 | 0.00 | 86 | 1016.6 |
| 20260504080620 | 59 | 238 | 0.0 | 0.0 | 0.00 | 0.00 | 0.00 | 85 | 1016.6 |
| 20260504080117 | 59 | 239 | 0.0 | 0.0 | 0.00 | 0.00 | 0.00 | 85 | 1016.2 |
| 20260504050433 | 60 | 256 | 0.0 | 0.0 | 0.00 | 0.00 | 0.00 | 85 | 1015.6 |
| 20260504045930 | 60 | 264 | 0.0 | 0.0 | 0.00 | 0.00 | 0.00 | 85 | 1015.9 |
| 20260504045426 | 60 | 239 | 0.0 | 0.0 | 0.00 | 0.00 | 0.00 | 85 | 1015.6 |
| 20260504044922 | 60 | 240 | 0.0 | 0.0 | 0.00 | 0.00 | 0.00 | 85 | 1015.9 |
| 20260504044420 | 60 | 218 | 0.0 | 0.0 | 0.00 | 0.00 | 0.00 | 85 | 1015.9 |
| 20260504043917 | 60 | 238 | 0.0 | 0.0 | 0.00 | 0.00 | 0.00 | 85 | 1015.9 |
| 20260504043414 | 60 | 210 | 0.0 | 0.0 | 0.00 | 0.00 | 0.00 | 85 | 1015.9 |
| 20260504042911 | 60 | 229 | 0.0 | 0.0 | 0.00 | 0.00 | 0.00 | 85 | 1015.6 |
| 20260504042408 | 60 | 248 | 0.0 | 0.0 | 0.00 | 0.00 | 0.00 | 86 | 1015.9 |
| 20260504041904 | 60 | 223 | 0.0 | 0.0 | 0.00 | 0.00 | 0.00 | 86 | 1015.9 |
| 20260504041400 | 60 | 235 | 0.0 | 0.0 | 0.00 | 0.00 | 0.00 | 85 | 1015.6 |
| 20260504040856 | 60 | 230 | 0.0 | 0.0 | 0.00 | 0.00 | 0.00 | 85 | 1015.6 |
| 20260504040354 | 60 | 159 | 0.0 | 0.0 | 0.00 | 0.00 | 0.00 | 85 | 1015.9 |
| 20260504035849 | 60 | 245 | 0.0 | 0.0 | 0.00 | 0.00 | 0.00 | 84 | 1015.6 |
| 20260504035347 | 60 | 232 | 0.0 | 0.9 | 0.00 | 0.00 | 0.00 | 84 | 1015.6 |
| 20260504034844 | 60 | 178 | 5.2 | 6.1 | 0.00 | 0.00 | 0.00 | 84 | 1015.6 |
| 20260504034342 | 60 | 245 | 0.0 | 0.0 | 0.00 | 0.00 | 0.00 | 83 | 1015.2 |
| 20260504033839 | 60 | 262 | 3.5 | 4.3 | 0.00 | 0.00 | 0.00 | 83 | 1015.6 |
| 20260504033337 | 61 | 179 | 0.0 | 0.0 | 0.00 | 0.00 | 0.00 | 83 | 1015.2 |
| 20260504032833 | 61 | 252 | 0.0 | 0.9 | 0.00 | 0.00 | 0.00 | 83 | 1015.2 |
| 20260504032331 | 61 | 225 | 0.0 | 0.0 | 0.00 | 0.00 | 0.00 | 83 | 1015.2 |
| 20260504031827 | 61 | 230 | 0.0 | 0.0 | 0.00 | 0.00 | 0.00 | 82 | 1014.9 |
| 20260504031324 | 61 | 229 | 0.0 | 0.9 | 0.00 | 0.00 | 0.00 | 82 | 1015.2 |
| 20260504030820 | 61 | 157 | 0.0 | 0.0 | 0.00 | 0.00 | 0.00 | 81 | 1014.9 |
| 20260504030318 | 61 | 171 | 0.0 | 0.0 | 0.00 | 0.00 | 0.00 | 82 | 1014.9 |
| 20260504025814 | 61 | 239 | 0.0 | 0.0 | 0.00 | 0.00 | 0.00 | 82 | 1014.9 |
| 20260504025311 | 61 | 239 | 0.0 | 0.0 | 0.00 | 0.00 | 0.00 | 82 | 1014.9 |
| 20260504024808 | 61 | 236 | 0.0 | 0.0 | 0.00 | 0.00 | 0.00 | 82 | 1014.6 |
| 20260504024304 | 61 | 233 | 0.0 | 0.0 | 0.00 | 0.00 | 0.00 | 82 | 1014.6 |
| 20260504023801 | 61 | 177 | 0.0 | 0.0 | 0.00 | 0.00 | 0.00 | 81 | 1014.6 |
| 20260504023257 | 61 | 230 | 0.9 | 4.3 | 0.00 | 0.00 | 0.00 | 81 | 1014.9 |
| 20260504022753 | 61 | 226 | 0.0 | 0.0 | 0.00 | 0.00 | 0.00 | 82 | 1014.9 |
| 20260504022249 | 61 | 258 | 4.3 | 7.8 | 0.00 | 0.00 | 0.00 | 81 | 1014.6 |
| 20260504021747 | 61 | 244 | 7.0 | 7.0 | 0.00 | 0.00 | 0.00 | 81 | 1014.6 |
| 20260504021244 | 61 | 170 | 4.3 | 6.1 | 0.00 | 0.00 | 0.00 | 81 | 1014.6 |
| 20260504020741 | 61 | 237 | 0.9 | 2.6 | 0.00 | 0.00 | 0.00 | 81 | 1014.6 |
| 20260504020237 | 61 | 243 | 0.9 | 4.3 | 0.00 | 0.00 | 0.00 | 81 | 1014.6 |
| 20260504015733 | 61 | 234 | 0.0 | 0.0 | 0.00 | 0.00 | 0.00 | 81 | 1014.6 |
| 20260504015230 | 61 | 248 | 8.7 | 11.3 | 0.00 | 0.00 | 0.00 | 81 | 1014.2 |
| 20260504014726 | 62 | 266 | 0.0 | 0.0 | 0.00 | 0.00 | 0.00 | 81 | 1014.2 |
| 20260504014223 | 62 | 226 | 0.0 | 0.0 | 0.00 | 0.00 | 0.00 | 81 | 1014.2 |
| 20260504013721 | 61 | 234 | 4.3 | 7.0 | 0.00 | 0.00 | 0.00 | 81 | 1014.2 |
| 20260504013218 | 62 | 273 | 0.0 | 0.0 | 0.00 | 0.00 | 0.00 | 81 | 1014.2 |
| 20260504012714 | 62 | 228 | 3.5 | 5.2 | 0.00 | 0.00 | 0.00 | 81 | 1013.9 |
| 20260504012212 | 62 | 245 | 8.7 | 9.6 | 0.00 | 0.00 | 0.00 | 80 | 1014.2 |
| 20260504011709 | 62 | 233 | 0.0 | 0.0 | 0.00 | 0.00 | 0.00 | 80 | 1014.2 |
| 20260504011205 | 62 | 255 | 6.1 | 9.6 | 0.00 | 0.00 | 0.00 | 80 | 1014.2 |
| 20260504010702 | 62 | 238 | 3.5 | 7.0 | 0.00 | 0.00 | 0.00 | 80 | 1013.9 |
| 20260504010157 | 62 | 225 | 0.0 | 0.0 | 0.00 | 0.00 | 0.00 | 80 | 1014.2 |
| 20260504005654 | 63 | 226 | 3.5 | 6.1 | 0.00 | 0.00 | 0.00 | 79 | 1014.2 |
| 20260504005151 | 62 | 200 | 1.7 | 1.7 | 0.00 | 0.00 | 0.00 | 80 | 1013.9 |
| 20260504004649 | 62 | 232 | 0.0 | 0.0 | 0.00 | 0.00 | 0.00 | 80 | 1013.9 |
| 20260504004146 | 62 | 243 | 0.0 | 0.0 | 0.00 | 0.00 | 0.00 | 81 | 1013.9 |
| 20260504003642 | 62 | 255 | 7.0 | 7.8 | 0.00 | 0.00 | 0.00 | 81 | 1014.2 |
| 20260504003139 | 63 | 242 | 4.3 | 6.1 | 0.00 | 0.00 | 0.00 | 80 | 1013.9 |
| 20260504002636 | 63 | 185 | 0.0 | 0.0 | 0.00 | 0.00 | 0.00 | 80 | 1013.9 |
| 20260504002134 | 62 | 174 | 4.3 | 7.0 | 0.00 | 0.00 | 0.00 | 81 | 1014.2 |
| 20260504001631 | 62 | 273 | 2.6 | 4.3 | 0.00 | 0.00 | 0.00 | 81 | 1014.2 |
| 20260504001127 | 63 | 245 | 3.5 | 5.2 | 0.00 | 0.00 | 0.00 | 81 | 1013.9 |
| 20260504000624 | 63 | 223 | 1.7 | 4.3 | 0.00 | 0.00 | 0.00 | 81 | 1013.9 |
| 20260504000122 | 62 | 253 | 3.5 | 5.2 | 0.00 | 0.00 | 0.00 | 82 | 1013.9 |
| 20260503235620 | 63 | 243 | 0.0 | 0.0 | 0.00 | 0.00 | 0.00 | 81 | 1013.9 |
| 20260503235116 | 63 | 184 | 1.7 | 4.3 | 0.00 | 0.00 | 0.00 | 81 | 1013.5 |
| 20260503234614 | 63 | 186 | 0.0 | 0.0 | 0.00 | 0.00 | 0.00 | 81 | 1013.9 |
| 20260503234112 | 63 | 264 | 0.0 | 0.0 | 0.00 | 0.00 | 0.00 | 80 | 1013.9 |
| 20260503233609 | 63 | 253 | 6.1 | 7.0 | 0.00 | 0.00 | 0.00 | 81 | 1013.9 |
| 20260503233104 | 63 | 156 | 0.0 | 0.0 | 0.00 | 0.00 | 0.00 | 82 | 1013.9 |
| 20260503232601 | 62 | 216 | 0.0 | 0.0 | 0.00 | 0.00 | 0.00 | 83 | 1013.9 |
| 20260503232059 | 63 | 243 | 0.0 | 1.7 | 0.00 | 0.00 | 0.00 | 82 | 1014.2 |
| 20260503231556 | 64 | 233 | 4.3 | 6.1 | 0.00 | 0.00 | 0.00 | 81 | 1014.2 |
| 20260503231053 | 64 | 237 | 7.8 | 9.6 | 0.00 | 0.00 | 0.00 | 80 | 1014.2 |
| 20260503230549 | 63 | 195 | 0.0 | 0.0 | 0.00 | 0.00 | 0.00 | 81 | 1014.2 |
| 20260503230047 | 64 | 194 | 4.3 | 5.2 | 0.00 | 0.00 | 0.00 | 79 | 1014.2 |
| 20260503225544 | 64 | 204 | 0.0 | 0.9 | 0.00 | 0.00 | 0.00 | 77 | 1013.9 |
| 20260503225039 | 64 | 272 | 4.3 | 7.8 | 0.00 | 0.00 | 0.00 | 77 | 1014.2 |
| 20260503224537 | 64 | 242 | 2.6 | 5.2 | 0.00 | 0.00 | 0.00 | 77 | 1014.2 |
| 20260503224034 | 64 | 238 | 4.3 | 6.1 | 0.00 | 0.00 | 0.00 | 76 | 1014.6 |
| 20260503223533 | 64 | 244 | 3.5 | 5.2 | 0.00 | 0.00 | 0.00 | 77 | 1014.6 |
| 20260503223027 | 65 | 201 | 4.3 | 6.1 | 0.00 | 0.00 | 0.00 | 76 | 1014.6 |
| 20260503222526 | 64 | 244 | 3.5 | 5.2 | 0.00 | 0.00 | 0.00 | 76 | 1014.2 |
| 20260503222024 | 64 | 246 | 7.0 | 7.8 | 0.00 | 0.00 | 0.00 | 75 | 1014.6 |
| 20260503221522 | 65 | 253 | 2.6 | 2.6 | 0.00 | 0.00 | 0.00 | 75 | 1014.2 |
| 20260503221019 | 64 | 176 | 4.3 | 7.8 | 0.00 | 0.00 | 0.00 | 75 | 1014.6 |
| 20260503220515 | 65 | 254 | 6.1 | 8.7 | 0.00 | 0.00 | 0.00 | 72 | 1014.2 |
| 20260503220012 | 65 | 257 | 5.2 | 8.7 | 0.00 | 0.00 | 0.00 | 72 | 1014.6 |
| 20260503215509 | 65 | 198 | 3.5 | 6.1 | 0.00 | 0.00 | 0.00 | 73 | 1014.6 |
| 20260503215006 | 65 | 259 | 6.1 | 9.6 | 0.00 | 0.00 | 0.00 | 72 | 1014.2 |
| 20260503214504 | 64 | 246 | 9.6 | 12.2 | 0.00 | 0.00 | 0.00 | 72 | 1014.9 |
| 20260503214001 | 65 | 234 | 6.1 | 7.0 | 0.00 | 0.00 | 0.00 | 73 | 1014.6 |
| 20260503213459 | 64 | 181 | 7.8 | 8.7 | 0.00 | 0.00 | 0.00 | 73 | 1014.6 |
| 20260503212955 | 65 | 221 | 6.1 | 9.6 | 0.00 | 0.00 | 0.00 | 72 | 1014.9 |
| 20260503212453 | 65 | 205 | 7.0 | 9.6 | 0.00 | 0.00 | 0.00 | 71 | 1014.9 |
| 20260503211950 | 65 | 225 | 7.0 | 9.6 | 0.00 | 0.00 | 0.00 | 72 | 1014.6 |
| 20260503211447 | 65 | 177 | 7.8 | 8.7 | 0.00 | 0.00 | 0.00 | 71 | 1014.9 |
| 20260503210942 | 65 | 208 | 3.5 | 6.1 | 0.00 | 0.00 | 0.00 | 72 | 1014.9 |
| 20260503210439 | 65 | 242 | 7.8 | 9.6 | 0.00 | 0.00 | 0.00 | 72 | 1014.9 |
| 20260503205934 | 66 | 175 | 7.0 | 8.7 | 0.00 | 0.00 | 0.00 | 70 | 1014.9 |
| 20260503205432 | 65 | 250 | 6.1 | 8.7 | 0.00 | 0.00 | 0.00 | 67 | 1014.9 |
| 20260503204927 | 66 | 234 | 5.2 | 7.0 | 0.00 | 0.00 | 0.00 | 69 | 1014.9 |
| 20260503204425 | 66 | 223 | 7.0 | 8.7 | 0.00 | 0.00 | 0.00 | 68 | 1014.9 |
| 20260503203921 | 66 | 218 | 5.2 | 7.0 | 0.00 | 0.00 | 0.00 | 70 | 1014.9 |
| 20260503203419 | 65 | 229 | 2.6 | 4.3 | 0.00 | 0.00 | 0.00 | 69 | 1014.9 |
| 20260503202916 | 66 | 236 | 0.0 | 1.7 | 0.00 | 0.00 | 0.00 | 68 | 1014.9 |
| 20260503202414 | 65 | 189 | 0.0 | 0.0 | 0.00 | 0.00 | 0.00 | 70 | 1014.9 |
| 20260503201912 | 66 | 260 | 8.7 | 8.7 | 0.00 | 0.00 | 0.00 | 66 | 1014.9 |
| 20260503201409 | 65 | 230 | 5.2 | 7.8 | 0.00 | 0.00 | 0.00 | 68 | 1014.9 |
| 20260503200907 | 65 | 269 | 6.1 | 7.8 | 0.00 | 0.00 | 0.00 | 69 | 1014.9 |
| 20260503200402 | 66 | 273 | 6.1 | 7.8 | 0.00 | 0.00 | 0.00 | 67 | 1014.9 |
| 20260503195859 | 65 | 260 | 6.1 | 8.7 | 0.00 | 0.00 | 0.00 | 66 | 1014.9 |
| 20260503195356 | 66 | 237 | 6.1 | 7.0 | 0.00 | 0.00 | 0.00 | 65 | 1014.9 |
| 20260503194853 | 65 | 240 | 6.1 | 7.0 | 0.00 | 0.00 | 0.00 | 65 | 1014.9 |
| 20260503194349 | 64 | 242 | 5.2 | 6.1 | 0.00 | 0.00 | 0.00 | 68 | 1015.2 |
| 20260503193846 | 65 | 246 | 3.5 | 6.1 | 0.00 | 0.00 | 0.00 | 67 | 1015.2 |
| 20260503193341 | 65 | 174 | 4.3 | 6.1 | 0.00 | 0.00 | 0.00 | 68 | 1015.2 |
| 20260503192837 | 65 | 238 | 5.2 | 6.1 | 0.00 | 0.00 | 0.00 | 71 | 1015.2 |
| 20260503192333 | 65 | 218 | 5.2 | 7.0 | 0.00 | 0.00 | 0.00 | 70 | 1015.2 |
| 20260503191829 | 66 | 169 | 0.0 | 0.0 | 0.00 | 0.00 | 0.00 | 70 | 1015.2 |
| 20260503191326 | 65 | 250 | 4.3 | 5.2 | 0.00 | 0.00 | 0.00 | 70 | 1015.2 |
| 20260503190823 | 66 | 245 | 7.0 | 7.8 | 0.00 | 0.00 | 0.00 | 69 | 1015.6 |
| 20260503190321 | 66 | 237 | 0.0 | 0.0 | 0.00 | 0.00 | 0.00 | 66 | 1015.6 |
| 20260503185817 | 66 | 244 | 0.0 | 0.0 | 0.00 | 0.00 | 0.00 | 67 | 1015.6 |
| 20260503185313 | 66 | 247 | 5.2 | 6.1 | 0.00 | 0.00 | 0.00 | 67 | 1015.6 |
| 20260503184808 | 66 | 262 | 0.0 | 0.0 | 0.00 | 0.00 | 0.00 | 67 | 1015.6 |
| 20260503184304 | 66 | 277 | 3.5 | 5.2 | 0.00 | 0.00 | 0.00 | 68 | 1015.2 |
| 20260503183800 | 66 | 248 | 0.0 | 0.0 | 0.00 | 0.00 | 0.00 | 68 | 1015.6 |
| 20260503183258 | 65 | 240 | 0.0 | 0.0 | 0.00 | 0.00 | 0.00 | 69 | 1015.6 |
| 20260503182755 | 66 | 184 | 6.1 | 6.1 | 0.00 | 0.00 | 0.00 | 69 | 1015.6 |
| 20260503182254 | 66 | 151 | 4.3 | 5.2 | 0.00 | 0.00 | 0.00 | 69 | 1015.6 |
| 20260503181750 | 65 | 221 | 3.5 | 6.1 | 0.00 | 0.00 | 0.00 | 69 | 1015.6 |
| 20260503181247 | 64 | 202 | 0.0 | 0.0 | 0.00 | 0.00 | 0.00 | 72 | 1015.6 |
| 20260503180744 | 64 | 218 | 1.7 | 2.6 | 0.00 | 0.00 | 0.00 | 72 | 1015.6 |
| 20260503180242 | 63 | 247 | 6.1 | 7.8 | 0.00 | 0.00 | 0.00 | 72 | 1015.9 |
| 20260503175738 | 63 | 220 | 4.3 | 6.1 | 0.00 | 0.00 | 0.00 | 71 | 1015.6 |
| 20260503175236 | 63 | 245 | 6.1 | 7.0 | 0.00 | 0.00 | 0.00 | 71 | 1015.6 |
| 20260503174732 | 64 | 254 | 0.0 | 0.0 | 0.00 | 0.00 | 0.00 | 73 | 1015.6 |
| 20260503174231 | 63 | 227 | 0.0 | 0.0 | 0.00 | 0.00 | 0.00 | 76 | 1015.6 |
| 20260503173730 | 63 | 215 | 0.0 | 0.0 | 0.00 | 0.00 | 0.00 | 76 | 1015.6 |